Regional Weather Roundup
Issued by NWS

Home | Current Version | Previous Version | Graphics & Text | Print | Product List | Glossary Off
Versions: 1 2 3 4 5 6 7 8 9 10 11 12 13 14 15 16 17 18 19 20 21 22 23 24 25 26 27 28 29 30 31 32 33 34 35 36 37 38 39 40 41 42 43 44 45 46 47 48 49 50

000
ASUS43 KTOP 221908
RWRKS

WEATHER ROUNDUP FOR KANSAS
NATIONAL WEATHER SERVICE GOODLAND KS
200 PM CDT TUE JUL 22 2014

NOTE:  "FAIR" INDICATES FEW OR NO CLOUDS BELOW 12,000 FEET WITH NO
SIGNIFICANT WEATHER AND/OR OBSTRUCTIONS TO VISIBILITY.

KSZ001>006-013>018-027>032-041>047-222000-
NORTHWEST KANSAS

CITY           SKY/WX    TMP DP  RH WIND       PRES   REMARKS
GOODLAND       SUNNY     93  59  31 E7        30.18F
HAYS           MOSUNNY   93  64  38 S6        30.09S HX  95
HILL CITY      SUNNY     95  65  37 S7        30.09S HX  97
RUSSELL        MOSUNNY   92  69  47 SW7       30.07S HX  97
$$

KSZ061>065-074>080-084>089-222000-
SOUTHWEST KANSAS

CITY           SKY/WX    TMP DP  RH WIND       PRES   REMARKS
DODGE CITY     MOSUNNY   93  70  46 S10       30.11F HX  99
ELKHART          N/A     90  65  43 S12         N/A
GARDEN CITY    SUNNY     90  71  53 S9        30.13S HX  96
GREAT BEND     SUNNY     95  70  43 S6        30.06S HX 101
LIBERAL        SUNNY     91  66  43 S9        30.15F
PRATT          SUNNY     93  70  46 SW9       30.11S HX  99
$$

KSZ066>073-081>083-090>101-222000-
SOUTHEAST KANSAS

CITY           SKY/WX    TMP DP  RH WIND       PRES   REMARKS
CHANUTE        SUNNY     94  74  52 VRB5      30.06F HX 104
COFFEYVILLE    SUNNY     93  75  55 VRB5      30.06F HX 104
HUTCHINSON     SUNNY     98  70  40 SW3       30.06F HX 105
MEDICINE LODGE   N/A     95  71  45 S8        30.07S HX 102
NEWTON         SUNNY     95  72  46 S5        30.10F HX 103
PARSONS        SUNNY     94  74  52 VRB6      30.08F HX 104
WICHITA INTL   MOSUNNY   95  74  50 S9        30.06F HX 105
WICHITA JABRA  SUNNY     94  76  55 SW8       30.07F HX 106
WICHITA MCCONL MOSUNNY   93  76  56 S8        30.08F HX 105
WINFIELD       SUNNY     94  77  57 CALM      30.09S HX 108
$$

KSZ007>012-019>026-033>040-048>060-102>105-222000-
NORTHEAST KANSAS

CITY           SKY/WX    TMP DP  RH WIND       PRES   REMARKS
CONCORDIA      PTSUNNY   96  64  34 SW9       30.04S HX  98
EMPORIA        SUNNY     96  72  45 CALM      30.05F HX 104
LAWRENCE       MOSUNNY   97  70  41 W8        30.02F HX 103
MANHATTAN      PTSUNNY  100  68  35 SW9       30.01F HX 105
MARYSVILLE     PTSUNNY   97  70  41 SW9       30.00F HX 103
OLATHE IND     MOSUNNY   95  74  50 S10       30.04F HX 105
OLATHE EXE     MOSUNNY   92  76  59 S10       30.03F HX 104
SALINA         MOSUNNY   99  68  36 W8        30.04S HX 104
TOPEKA BILLARD PTSUNNY  100  70  37 VRB5      30.01F HX 107
TOPEKA FORBES  MOSUNNY   99  68  36 W9        30.03F HX 104
$$



USA.gov is the U.S. government's official web portal to all federal, state and local government web resources and services.